EDT,Max TemperatureF,Mean TemperatureF,Min TemperatureF,Max Dew PointF,MeanDew PointF,Min DewpointF,Max Humidity, Mean Humidity, Min Humidity, Max Sea Level PressureIn, Mean Sea Level PressureIn, Min Sea Level PressureIn, Max VisibilityMiles, Mean VisibilityMiles, Min VisibilityMiles, Max Wind SpeedMPH, Mean Wind SpeedMPH, Max Gust SpeedMPH,PrecipitationIn, CloudCover, Events, WindDirDegrees
2013-3-1,27,18,10,14,10,7,85,72,57,30.19,30.15,30.06,10,10,10,12,8,20,0.00,2,,359
2013-3-2,23,16,10,14,9,6,90,76,57,30.18,30.12,30.05,10,10,10,12,6,18,0.00,4,,342
2013-3-3,21,11,1,11,6,-1,93,80,56,30.06,30.04,30.00,10,10,7,9,3,,0.00,2,Snow,324
2013-3-4,26,12,-2,9,4,-5,92,74,41,30.13,30.10,30.05,10,10,7,9,2,,0.00,0,,307
2013-3-5,30,17,4,23,13,3,93,75,55,30.16,30.10,30.04,10,10,10,9,3,17,0.00,3,,60
2013-3-6,37,32,27,30,26,23,99,82,68,30.20,30.16,30.08,10,9,2,9,5,16,0.00,7,Snow,17
2013-3-7,32,28,23,28,24,20,98,87,74,30.39,30.29,30.20,10,9,2,10,6,17,0.00,5,Snow,296
2013-3-8,38,29,21,30,27,21,100,90,73,30.47,30.41,30.36,10,9,0,9,2,,0.00,3,Fog,202
2013-3-9,37,28,20,33,29,20,100,92,65,30.35,30.21,30.03,10,7,0,16,4,23,0.00,5,Fog-Rain-Snow,140
2013-3-10,37,34,32,38,35,32,100,99,95,30.01,29.87,29.81,10,4,1,14,7,20,0.00,8,Rain-Snow,143
2013-3-11,41,38,34,42,36,34,100,100,100,29.87,29.58,29.36,10,4,0,14,6,25,0.00,8,Fog-Rain-Snow,71
2013-3-12,35,28,21,35,26,18,100,93,82,29.81,29.65,29.35,10,6,1,10,4,,0.00,8,Rain-Snow,275
2013-3-13,23,18,14,19,14,10,98,79,59,30.10,29.92,29.79,10,9,1,15,5,26,0.00,5,Snow,313
2013-3-14,30,18,6,24,10,-2,83,61,38,30.19,30.10,29.93,10,10,10,10,5,16,0.00,2,Snow,281
2013-3-15,31,25,18,30,19,8,98,74,56,29.94,29.85,29.75,10,9,1,14,10,24,0.00,4,Snow,295
2013-3-16,20,14,7,17,4,0,89,66,47,30.00,29.96,29.93,10,9,2,9,5,17,0.00,5,Snow,17
2013-3-17,21,13,5,17,3,-5,90,64,44,30.32,30.21,29.96,10,10,1,10,5,21,0.00,1,Snow,340
2013-3-18,33,22,10,28,16,4,97,79,53,30.23,29.92,29.51,10,8,0,20,7,33,0.00,4,Snow,95
2013-3-19,30,26,22,30,25,18,100,90,74,29.71,29.51,29.40,10,4,1,15,9,25,0.00,7,Snow,237
2013-3-20,28,22,17,25,19,14,94,83,65,29.75,29.73,29.71,10,8,1,15,7,26,0.00,4,Snow,255
2013-3-21,27,23,19,23,18,14,93,79,60,29.83,29.79,29.73,10,10,4,14,6,22,0.00,5,Snow,307
2013-3-22,34,26,18,23,19,14,91,76,62,29.98,29.89,29.83,10,10,10,12,6,18,0.00,5,,309
2013-3-23,37,24,12,23,20,11,99,79,49,30.07,30.04,29.98,10,10,10,12,3,20,0.00,1,,305
2013-3-24,35,28,21,23,20,18,92,71,50,30.07,29.97,29.85,10,10,10,10,2,,0.00,3,,9
2013-3-25,39,33,27,29,25,22,83,71,50,29.95,29.86,29.83,10,10,10,9,5,17,0.00,8,,8
2013-3-26,40,36,32,29,26,20,88,71,46,30.04,29.99,29.94,10,10,10,13,6,22,0.00,5,,324
2013-3-27,39,34,28,30,27,25,92,78,58,30.14,30.07,30.03,10,10,10,12,5,20,0.00,5,,303
2013-3-28,42,36,30,30,26,18,96,71,43,30.21,30.18,30.14,10,10,5,13,4,20,0.00,3,Snow,292
2013-3-29,44,34,25,28,24,18,99,71,35,30.24,30.20,30.17,10,10,10,8,4,,0.00,0,,293
2013-3-30,43,32,21,34,25,19,99,74,41,30.18,30.04,29.81,10,10,10,12,3,17,0.00,3,Rain,174
2013-3-31,37,32,25,37,34,19,100,95,78,29.79,29.60,29.52,10,5,0,13,5,21,0.00,8,Fog-Rain-Snow,249